This is the latest recevied weather packets stored in our database for station/object N2WH. If no packets are shown the sender has not sent any weather packets the latest 10 day(s).
| Time | Temp. | Humidity | Pressure | Rain* | Wind** | Luminosity | Snow |
|---|---|---|---|---|---|---|---|
| 1778101795 | 15.56° C | 98% | 1007.8 hPa | 0 mm | - | 26 W/m² | - |
| 1778101491 | 15.56° C | 98% | 1007.9 hPa | 0 mm | - | 36 W/m² | - |
| 1778101188 | 15.56° C | 98% | 1007.8 hPa | 0 mm | - | 35 W/m² | - |
| 1778100884 | 15.56° C | 98% | 1007.7 hPa | 0 mm | - | 39 W/m² | - |
| 1778100580 | 15.56° C | 98% | 1007.6 hPa | 0 mm | - | 41 W/m² | - |
| 1778100278 | 15.56° C | 98% | 1007.4 hPa | 0 mm | - | 47 W/m² | - |
| 1778099976 | 15.56° C | 98% | 1007.8 hPa | 0 mm | - | 49 W/m² | - |
| 1778099673 | 15.56° C | 99% | 1007.6 hPa | 0 mm | - | 35 W/m² | - |
| 1778099369 | 15.56° C | 98% | 1007.6 hPa | 0 mm | - | 45 W/m² | - |
| 1778099067 | 15.56° C | 99% | 1007.7 hPa | 0 mm | - | 45 W/m² | - |
| 1778098763 | 15.56° C | 99% | 1007.5 hPa | 0 mm | - | 42 W/m² | - |
| 1778098461 | 15.56° C | 99% | 1007.6 hPa | 0 mm | - | 43 W/m² | - |
| 1778098157 | 15.56° C | 99% | 1007.8 hPa | 0 mm | - | 41 W/m² | - |
| 1778097853 | 15.56° C | 98% | 1007.6 hPa | 0 mm | - | 39 W/m² | - |
| 1778097550 | 15.56° C | 98% | 1007.6 hPa | 0 mm | - | 37 W/m² | - |
| 1778097247 | 16.11° C | 98% | 1007.6 hPa | 0 mm | - | 52 W/m² | - |
| 1778096944 | 15.56° C | 98% | 1007.7 hPa | 1.27 mm | - | 62 W/m² | - |
| 1778096641 | 16.11° C | 98% | 1008 hPa | 1.27 mm | - | 59 W/m² | - |
| 1778096338 | 15.56° C | 98% | 1008 hPa | 0 mm | - | 83 W/m² | - |
| 1778096035 | 15.56° C | 98% | 1008.2 hPa | 0 mm | - | 62 W/m² | - |
| 1778095731 | 15.56° C | 98% | 1008.2 hPa | 0 mm | - | 53 W/m² | - |
| 1778095428 | 15.56° C | 98% | 1008.2 hPa | 1.78 mm | - | 35 W/m² | - |
| 1778095125 | 15.56° C | 97% | 1008.4 hPa | 1.78 mm | - | 41 W/m² | - |
| 1778094821 | 15.56° C | 97% | 1008.4 hPa | 0 mm | - | 43 W/m² | - |
| 1778094518 | 15.56° C | 97% | 1008.4 hPa | 1.27 mm | - | 32 W/m² | - |
* Rain latest hour (hover to see other rain measurements)
** Current wind speed in m/s (hover to see current wind gust speed)